User: anonymous   Login
Location: Zagreb
(45.8000°N, 16.0000°E)
Time: 03:06:04
(UTC+01:00)
Language:

NUDT-PHONESAT - Orbit

View from above orbital plane
View from above orbital plane
View from above satellite
View from above satellite

Ground track
Ground track

The orbit data is extracted from the following two-line orbital elements,

1 40900U 15049B   21018.73573319  .00002263  00000-0  92606-4 0  9992
2 40900  97.4254  33.9056 0010933 312.9452 163.5038 15.25319790295996
Epoch (UTC): 18 January 2021 17:39:27
Eccentricity: 0.0010933
inclination: 97.4254°
perigee height: 482 km
apogee height: 497 km
right ascension of ascending node: 33.9056°
argument of perigee: 312.9452°
revolutions per day: 15.25319790
mean anomaly at epoch: 163.5038°
orbit number at epoch: 29599

The dashed part of the orbit path shows where the satellite is in the earth's shadow,  

DLR